Location: Batang Balui
(2.7000°N, 113.7833°E)
Time: 00:09:07
(UTC+00:00)

CZ-4 R/B - Pass Details

Date: 03 December 2021
Orbit: 579 x 589 km, 97.7° (Epoch: 27 January)

Event Time Altitude Azimuth Distance (km) Brightness Sun altitude
Rises 11:12:14 0° 169° (S) 2,791 8.1 -14.3°
Reaches altitude 10° 11:14:23 10° 169° (S) 1,891 7.2 -14.8°
Maximum altitude 11:18:29 87° 258° (WSW) 583 4.4 -15.8°
Drops below altitude 10° 11:22:34 10° 348° (NNW) 1,887 6.9 -16.7°
Sets 11:24:43 0° 348° (NNW) 2,785 7.8 -17.2°
